Tracking 33068 objects as of 25-Jan-2026
HD Live streaming from Space Station
objects crossing your sky now

CZ-6A DEB

Track CZ-6A DEB now!
10-day predictions


NORAD ID: 56601
Int'l Code: 2022-151ADZ
Perigee: 702.5 km
Apogee: 867.4 km
Inclination: 98.6 °
Period: 100.4 minutes
Semi major axis: 7155 km
RCS: Unknown
Launch date: November 11, 2022
Source: People's Republic of China (PRC)
Launch site: Taiyaun Space Center, China (TSC)

Note: This is SATELLITE DEBRIS
Your satellite tracking list
Your tracking list is empty




NASA's NSSDC Master Catalog

Two Line Element Set (TLE):
1 56601U 22151ADZ 26021.79246609  .00001189  00000-0  40879-3 0  9993
2 56601  98.6119  42.9553 0115169 115.1764 246.1417 14.34172757143688
Source of the keplerian elements: AFSPC